DAL8673 CYHZ-CYYZ

Flight info

Callsign DAL8673
Flight time N/A
Altitude 34000
Route KELNO Q806 MLT DCT DERDO DCT DAXUG DCT MUTIB DCT SAVEX Q806 TUKIR RAGID6
Aircraft B738/M-SDE2E3FGHIRWXY/LB1

Departure

Time 2025-12-30 21:04
Airport Halifax / Stanfield International Airport (CYHZ)

Arrival

Time N/A
Airport Toronto Pearson International Airport (CYYZ)
Time Latitude Longitude Altitude Speed Heading
2025-12-30 20:46 44.88693 -63.51384 446 ft 0 kts 260°
2025-12-30 20:53 44.88695 -63.51368 447 ft 2 kts 260°
2025-12-30 20:53 44.88697 -63.51346 447 ft 0 kts 260°
2025-12-30 20:55 44.88698 -63.51344 447 ft 3 kts 260°
2025-12-30 20:55 44.88702 -63.51306 447 ft 2 kts 261°
2025-12-30 20:56 44.88701 -63.51263 447 ft 1 kts 299°
2025-12-30 20:56 44.88685 -63.51243 448 ft 0 kts 338°
2025-12-30 20:59 44.88716 -63.51136 448 ft 14 kts 101°
2025-12-30 20:59 44.88725 -63.50972 448 ft 18 kts 72°
2025-12-30 21:00 44.88939 -63.50718 443 ft 23 kts 33°
2025-12-30 21:00 44.89003 -63.50593 440 ft 0 kts 99°
2025-12-30 21:01 44.88923 -63.50437 442 ft 13 kts 159°
2025-12-30 21:02 44.88263 -63.51050 454 ft 121 kts 215°
2025-12-30 21:03 44.86360 -63.52745 1165 ft 196 kts 215°
2025-12-30 21:03 44.84093 -63.54905 2046 ft 197 kts 222°
2025-12-30 21:03 44.83353 -63.56511 2419 ft 200 kts 249°
2025-12-30 21:04 44.83837 -63.60390 3205 ft 220 kts 301°
2025-12-30 21:04 44.85719 -63.64128 4339 ft 257 kts 299°
2025-12-30 21:05 44.87834 -63.68319 5371 ft 266 kts 299°
2025-12-30 21:05 44.89977 -63.72571 6285 ft 271 kts 298°
2025-12-30 21:06 44.92451 -63.76635 7163 ft 287 kts 322°
2025-12-30 21:07 44.98390 -63.77231 8559 ft 305 kts 26°
2025-12-30 21:07 45.00331 -63.76047 9021 ft 309 kts 14°
2025-12-30 21:07 45.04512 -63.76516 9958 ft 307 kts 332°
2025-12-30 21:08 45.07541 -63.80463 10898 ft 296 kts 291°
2025-12-30 21:08 45.08418 -63.85999 11852 ft 297 kts 275°
2025-12-30 21:09 45.09187 -63.92051 13081 ft 331 kts 274°
2025-12-30 21:09 45.09993 -63.98584 14199 ft 341 kts 274°
2025-12-30 21:10 45.11212 -64.08566 15617 ft 346 kts 274°
2025-12-30 21:11 45.12029 -64.15298 16505 ft 350 kts 274°
2025-12-30 21:11 45.12850 -64.22098 17414 ft 353 kts 274°
2025-12-30 21:11 45.13261 -64.25525 17902 ft 356 kts 274°
2025-12-30 21:12 45.14094 -64.32475 18878 ft 361 kts 274°
2025-12-30 21:12 45.14933 -64.39522 19853 ft 366 kts 275°
2025-12-30 21:13 45.15777 -64.46645 20828 ft 371 kts 275°
2025-12-30 21:13 45.16629 -64.53875 21804 ft 377 kts 275°
2025-12-30 21:14 45.17925 -64.64954 23273 ft 385 kts 275°
2025-12-30 21:15 45.18800 -64.72491 24257 ft 390 kts 274°
2025-12-30 21:15 45.19236 -64.76269 24746 ft 394 kts 274°
2025-12-30 21:16 45.21929 -64.99786 27731 ft 414 kts 273°
2025-12-30 21:19 45.26068 -65.36922 31911 ft 433 kts 273°
2025-12-30 21:20 45.29343 -65.67113 33325 ft 456 kts 272°
2025-12-30 21:23 45.33585 -66.07416 33281 ft 461 kts 272°
2025-12-30 21:25 45.37252 -66.43439 33278 ft 460 kts 272°
2025-12-30 21:27 45.40793 -66.79404 33287 ft 460 kts 272°
2025-12-30 21:28 45.43803 -67.10867 33284 ft 458 kts 270°
2025-12-30 21:31 45.47564 -67.51204 33254 ft 459 kts 271°
2025-12-30 21:32 45.51127 -67.82542 33287 ft 459 kts 271°
2025-12-30 21:35 45.55593 -68.22917 33376 ft 459 kts 271°
2025-12-30 21:37 45.59032 -68.58808 33374 ft 454 kts 266°
2025-12-30 21:38 45.60572 -68.90160 33379 ft 453 kts 265°
2025-12-30 21:40 45.62252 -69.26720 33379 ft 465 kts 264°
2025-12-30 21:42 45.63823 -69.63509 33383 ft 465 kts 264°
2025-12-30 21:44 45.65276 -70.00288 33445 ft 464 kts 263°
2025-12-30 21:46 45.66612 -70.37145 33457 ft 465 kts 263°
2025-12-30 21:48 45.67827 -70.73904 33518 ft 463 kts 262°
2025-12-30 21:50 45.66180 -71.09174 33477 ft 436 kts 253°
2025-12-30 21:52 45.63878 -71.43539 33483 ft 435 kts 253°
2025-12-30 21:54 45.61482 -71.77793 33483 ft 434 kts 252°
2025-12-30 21:56 45.60155 -72.12426 33472 ft 439 kts 256°
2025-12-30 21:59 45.59011 -72.51508 33471 ft 439 kts 256°
2025-12-30 22:00 45.58028 -72.81878 33566 ft 439 kts 256°
2025-12-30 22:03 45.56658 -73.20756 33563 ft 433 kts 255°
2025-12-30 22:05 45.55330 -73.55093 33569 ft 434 kts 255°
2025-12-30 22:07 45.53908 -73.89297 33584 ft 432 kts 254°
2025-12-30 22:09 45.52386 -74.23436 33567 ft 431 kts 254°
2025-12-30 22:11 45.49810 -74.57095 33613 ft 421 kts 247°
2025-12-30 22:13 45.45229 -74.89562 33659 ft 420 kts 246°
2025-12-30 22:15 45.40624 -75.21483 33645 ft 408 kts 246°
2025-12-30 22:17 45.35981 -75.53003 33633 ft 407 kts 246°
2025-12-30 22:19 45.31267 -75.84366 33629 ft 406 kts 245°
2025-12-30 22:21 45.26478 -76.15627 33625 ft 406 kts 245°
2025-12-30 22:23 45.15231 -76.40327 33086 ft 373 kts 222°
2025-12-30 22:24 45.03892 -76.58901 30242 ft 351 kts 223°
2025-12-30 22:27 44.89758 -76.81911 26686 ft 338 kts 225°
2025-12-30 22:28 44.80805 -76.96841 24175 ft 331 kts 235°
2025-12-30 22:29 44.78519 -77.02329 23684 ft 322 kts 236°
2025-12-30 22:29 44.77403 -77.05067 23705 ft 324 kts 236°
2025-12-30 22:29 44.75149 -77.10628 23711 ft 329 kts 237°
2025-12-30 22:30 44.71761 -77.18984 23720 ft 328 kts 236°
2025-12-30 22:31 44.69503 -77.24536 23728 ft 328 kts 236°
2025-12-30 22:31 44.67236 -77.30100 23734 ft 328 kts 236°
2025-12-30 22:32 44.64958 -77.35685 23734 ft 328 kts 236°
2025-12-30 22:32 44.62685 -77.41251 23741 ft 332 kts 236°
2025-12-30 22:33 44.60389 -77.46853 23741 ft 331 kts 236°
2025-12-30 22:33 44.59238 -77.49658 23742 ft 331 kts 236°
2025-12-30 22:33 44.56960 -77.55202 23741 ft 330 kts 236°
2025-12-30 22:34 44.53514 -77.63572 23466 ft 335 kts 236°
2025-12-30 22:35 44.51209 -77.69151 22697 ft 327 kts 236°
2025-12-30 22:35 44.48949 -77.74610 21937 ft 320 kts 236°
2025-12-30 22:36 44.46743 -77.79926 21198 ft 317 kts 236°
2025-12-30 22:36 44.44537 -77.85234 20448 ft 314 kts 236°
2025-12-30 22:36 44.43443 -77.87860 20072 ft 312 kts 236°
2025-12-30 22:37 44.41276 -77.93061 19319 ft 308 kts 236°
2025-12-30 22:37 44.39126 -77.98209 18562 ft 305 kts 236°
2025-12-30 22:38 44.35934 -78.05836 17423 ft 300 kts 237°
2025-12-30 22:39 44.33833 -78.10841 16663 ft 297 kts 237°
2025-12-30 22:39 44.31760 -78.15758 15905 ft 294 kts 237°
2025-12-30 22:40 44.29691 -78.20647 15140 ft 291 kts 237°
2025-12-30 22:40 44.27640 -78.25493 14314 ft 289 kts 237°
2025-12-30 22:41 44.25619 -78.30276 13430 ft 286 kts 238°
2025-12-30 22:41 44.24617 -78.32653 12973 ft 284 kts 238°
2025-12-30 22:41 44.22620 -78.37367 11985 ft 281 kts 238°
2025-12-30 22:42 44.19677 -78.44295 10507 ft 276 kts 239°
2025-12-30 22:43 44.17809 -78.48932 9519 ft 274 kts 242°